Weather History for Cherokee, IA

Change the Weather History Date:

Tuesday, April 9, 2013

  Actual Average Record
Temperature  
Mean Temperature 38 °F -  
Max Temperature 44 °F 52 °F 87 °F (1988)
Min Temperature 32 °F 29 °F 14 °F (1982)
Degree Days  
Heating Degree Days 26    
Moisture  
Dew Point 35 °F    
Average Humidity 93    
Maximum Humidity 98    
Minimum Humidity 87    
Precipitation  
Precipitation 1.18 in - - ()
Sea Level Pressure  
Sea Level Pressure 29.87 in    
Wind  
Wind Speed 19 mph (NNE)    
Max Wind Speed 31 mph    
Max Gust Speed 48 mph    
Visibility 6 miles    
Events Rain , Snow , Thunderstorm    
Averages and records for this station are not official NWS values.
T = Trace of Precipitation, MM = Missing Value Source: NWS Daily Summary

Daily Weather History Graph

Daily Weather History Graph

Search for Another Location

Airport:

Trip Planner

Search our weather history database for the weather conditions in past years. The results will help you decide how hot, cold, wet, or windy it might be!

Date:

Astronomy

Apr. 09, 2013 Rise Set
Actual Time 6:50 AM CDT 7:57 PM CDT
Civil Twilight 6:21 AM CDT 8:26 PM CDT
Nautical Twilight 5:46 AM CDT 9:01 PM CDT
Astronomical Twilight 5:10 AM CDT 9:38 PM CDT
Moon 6:14 AM CDT (4/9) 7:34 PM CDT (4/9)
Length of Visible Light 14h 05m
Length of Day
13h 07m
Waning Crescent, 1% of the Moon is Illuminated
Apr 9
Waning Crescent
Apr 10
New
Apr 18
First Quarter
Apr 25
Full
May 2
Last Quarter

Hourly Weather History & Observations

Time (CDT) Temp. Windchill Dew Point Humidity Pressure Visibility Wind Dir Wind Speed Gust Speed Precip Events Conditions
12:15 AM 45.5 °F 37.6 °F 42.4 °F 89% 29.83 in 4.0 mi NE 20.7 mph 26.5 mph N/A   Overcast
12:35 AM 45.0 °F 36.6 °F 42.3 °F 90% 29.81 in 4.0 mi NE 21.9 mph 29.9 mph N/A   Overcast
12:55 AM 44.8 °F 36.6 °F 42.1 °F 90% 29.83 in 4.0 mi NE 20.7 mph 28.8 mph N/A   Overcast
1:15 AM 44.6 °F 36.6 °F 41.5 °F 89% 29.81 in 4.0 mi NE 19.6 mph 32.2 mph N/A   Overcast
1:35 AM 44.2 °F 37.6 °F 41.2 °F 89% 29.80 in 4.0 mi NE 13.8 mph 28.8 mph N/A Thunderstorm Overcast
1:55 AM 43.7 °F 36.0 °F 41.0 °F 90% 29.79 in 5.0 mi NE 17.3 mph 28.8 mph N/A Rain , Thunderstorm Light Thunderstorms and Rain
2:15 AM 42.8 °F 35.8 °F 41.0 °F 93% 29.81 in 4.0 mi NNE 13.8 mph 24.2 mph 0.01 in Rain Rain
2:35 AM 42.3 °F 34.8 °F 40.6 °F 94% 29.84 in 3.0 mi ENE 15.0 mph 19.6 mph 0.03 in Rain , Thunderstorm Thunderstorms and Rain
2:55 AM 41.9 °F 33.4 °F 40.5 °F 95% 29.80 in 3.0 mi NE 18.4 mph 27.6 mph 0.10 in Rain , Thunderstorm Rain
3:15 AM 41.7 °F 33.4 °F 40.3 °F 95% 29.81 in 4.0 mi NE 17.3 mph 26.5 mph 0.02 in Rain , Thunderstorm Rain
3:35 AM 41.4 °F 32.7 °F 39.9 °F 95% 29.78 in 7.0 mi NE 18.4 mph 28.8 mph 0.02 in Rain Light Rain
3:55 AM 41.0 °F 32.8 °F 39.4 °F 94% 29.78 in 7.0 mi NE 16.1 mph 28.8 mph 0.02 in   Drizzle
4:15 AM 40.6 °F 33.0 °F 39.2 °F 95% 29.79 in 10.0 mi NE 13.8 mph 24.2 mph N/A Thunderstorm Unknown
4:35 AM 40.6 °F 32.0 °F 39.2 °F 95% 29.81 in 10.0 mi NE 17.3 mph 29.9 mph N/A Rain Light Rain
4:55 AM 40.3 °F 30.7 °F 38.8 °F 95% 29.77 in 3.0 mi NE 20.7 mph 28.8 mph 0.06 in Rain , Thunderstorm Rain
5:15 AM 40.1 °F 31.0 °F 38.8 °F 95% 29.76 in 7.0 mi NE 18.4 mph 26.5 mph N/A Rain Light Rain
5:35 AM 40.3 °F 31.0 °F 38.7 °F 94% 29.77 in 10.0 mi NE 19.6 mph 31.1 mph N/A Rain , Thunderstorm Light Thunderstorms and Rain
5:55 AM 40.1 °F 30.7 °F 38.5 °F 94% 29.77 in 5.0 mi NE 19.6 mph 26.5 mph 0.02 in Rain , Thunderstorm Rain
6:15 AM 39.6 °F 28.3 °F 38.3 °F 95% 29.70 in 2.0 mi NE 27.6 mph 35.7 mph 0.06 in Rain , Thunderstorm Thunderstorms and Rain
6:35 AM 39.6 °F 29.2 °F 38.3 °F 95% 29.72 in 7.0 mi NE 23.0 mph 40.3 mph 0.07 in Rain , Thunderstorm Light Thunderstorms and Rain
6:55 AM 39.6 °F 30.0 °F 38.3 °F 95% 29.75 in 5.0 mi NE 19.6 mph 28.8 mph 0.09 in Rain , Thunderstorm Rain
7:15 AM 39.9 °F 28.2 °F 38.7 °F 95% 29.91 in 1.2 mi North 31.1 mph 47.2 mph 0.14 in Thunderstorm Thunderstorm
7:35 AM 40.3 °F 31.0 °F 37.8 °F 91% 29.77 in 5.0 mi NNE 19.6 mph 34.5 mph 0.24 in Rain , Thunderstorm Rain
7:55 AM 39.7 °F 30.6 °F 36.1 °F 87% 29.80 in 10.0 mi NE 18.4 mph 25.3 mph 0.25 in Rain Light Rain
8:15 AM 39.6 °F 30.3 °F 36.5 °F 89% 29.81 in 10.0 mi NE 18.4 mph 27.6 mph N/A   Scattered Clouds
8:35 AM 38.5 °F 28.6 °F 36.1 °F 91% 29.81 in 10.0 mi NNE 19.6 mph 27.6 mph N/A   Mostly Cloudy
8:55 AM 38.5 °F 28.3 °F 36.0 °F 91% 29.82 in 10.0 mi NNE 20.7 mph 32.2 mph N/A   Overcast
9:15 AM 38.3 °F 28.1 °F 36.0 °F 91% 29.82 in 10.0 mi NNE 20.7 mph 29.9 mph N/A   Overcast
9:35 AM 37.9 °F 27.9 °F 35.6 °F 91% 29.84 in 10.0 mi NNE 19.6 mph 28.8 mph N/A   Light Drizzle
9:55 AM 37.4 °F 27.2 °F 34.9 °F 91% 29.87 in 10.0 mi NNE 19.6 mph 29.9 mph N/A   Overcast
10:15 AM 37.0 °F 26.4 °F 34.7 °F 91% 29.87 in 5.0 mi NNE 20.7 mph 32.2 mph N/A Rain Rain
10:35 AM 36.9 °F 25.6 °F 34.9 °F 93% 29.87 in 4.0 mi NNE 23.0 mph 31.1 mph N/A Rain Light Rain
10:55 AM 36.7 °F 26.3 °F 34.9 °F 93% 29.87 in 4.0 mi NNE 19.6 mph 31.1 mph N/A Rain Light Rain
11:15 AM 36.7 °F 25.7 °F 34.7 °F 93% 29.88 in 7.0 mi NE 21.9 mph 34.5 mph N/A   Overcast
11:35 AM 36.5 °F 25.4 °F 34.3 °F 92% 29.89 in 7.0 mi NNE 21.9 mph 31.1 mph N/A   Overcast
11:55 AM 36.0 °F 25.0 °F 33.6 °F 91% 29.89 in 10.0 mi NNE 20.7 mph 38.0 mph N/A   Overcast
12:15 PM 36.1 °F 26.2 °F 34.0 °F 92% 29.90 in 10.0 mi NNE 17.3 mph 27.6 mph N/A   Overcast
12:35 PM 36.1 °F 26.2 °F 33.8 °F 91% 29.91 in 10.0 mi NNE 17.3 mph 32.2 mph N/A   Overcast
12:55 PM 35.8 °F 24.2 °F 33.1 °F 90% 29.91 in 10.0 mi NNE 23.0 mph 34.5 mph N/A   Overcast
1:15 PM 35.8 °F 25.1 °F 33.3 °F 91% 29.91 in 10.0 mi NNE 19.6 mph 32.2 mph N/A   Overcast
1:35 PM 35.6 °F 23.7 °F 33.1 °F 91% 29.90 in 10.0 mi NNE 24.2 mph 31.1 mph N/A   Overcast
1:55 PM 35.6 °F 23.7 °F 32.9 °F 90% 29.92 in 10.0 mi NNE 24.2 mph 36.8 mph N/A   Overcast
2:15 PM 35.6 °F 25.9 °F 32.9 °F 90% 29.94 in 7.0 mi NNE 16.1 mph 26.5 mph N/A   Overcast
2:35 PM 35.2 °F 24.4 °F 32.9 °F 91% 29.94 in 5.0 mi NNE 19.6 mph 31.1 mph N/A   Overcast
2:55 PM 34.9 °F 23.6 °F 32.7 °F 92% 29.95 in 4.0 mi NNE 20.7 mph 26.5 mph N/A   Overcast
3:15 PM 34.3 °F 22.6 °F 32.2 °F 92% 29.95 in 3.0 mi NNE 21.9 mph 26.5 mph N/A   Drizzle
3:35 PM 34.0 °F 22.1 °F 32.2 °F 93% 29.94 in 3.0 mi NNE 21.9 mph 28.8 mph N/A Rain Rain
3:55 PM 33.8 °F 23.9 °F 32.0 °F 93% 29.96 in 3.0 mi NNE 15.0 mph 33.4 mph N/A Rain Light Rain
4:15 PM 33.4 °F 21.7 °F 32.0 °F 94% 29.91 in 4.0 mi NNE 20.7 mph 28.8 mph N/A Rain , Thunderstorm Light Thunderstorms and Rain
4:35 PM 33.6 °F 22.2 °F 32.0 °F 94% 29.90 in 5.0 mi NNE 19.6 mph 29.9 mph N/A Rain , Thunderstorm Light Thunderstorms and Rain
4:55 PM 33.3 °F 22.8 °F 32.0 °F 95% 29.89 in 10.0 mi NNE 16.1 mph 31.1 mph N/A   Overcast
5:15 PM 33.3 °F 21.8 °F 31.8 °F 94% 29.89 in 10.0 mi NNE 19.6 mph 28.8 mph N/A   Overcast
5:35 PM 33.1 °F 23.0 °F 31.5 °F 94% 29.94 in 2.0 mi North 15.0 mph 19.6 mph 0.02 in Snow Light Snow
5:55 PM 32.7 °F 19.3 °F 31.6 °F 96% 29.84 in 5.0 mi NNE 26.5 mph 35.7 mph 0.02 in Thunderstorm Overcast
6:15 PM 32.4 °F 20.0 °F 31.1 °F 95% 29.82 in 10.0 mi NE 21.9 mph 33.4 mph N/A Thunderstorm Overcast
6:35 PM 32.4 °F 21.3 °F 30.9 °F 94% 29.91 in 1.8 mi NNE 17.3 mph 48.3 mph 0.05 in Snow , Thunderstorm Light Thunderstorms and Snow
6:55 PM 33.1 °F 20.6 °F 31.8 °F 95% 29.94 in 4.0 mi NNE 23.0 mph 32.2 mph 0.07 in Snow , Thunderstorm Light Thunderstorms and Snow
7:15 PM 33.3 °F 22.8 °F 31.6 °F 94% 29.91 in 1.5 mi NNE 16.1 mph 26.5 mph 0.07 in Snow , Thunderstorm Light Thunderstorms and Snow
7:35 PM 33.1 °F 24.9 °F 32.0 °F 96% 29.94 in 1.8 mi NNE 10.4 mph 21.9 mph 0.16 in Snow , Thunderstorm Light Thunderstorms and Snow
7:55 PM 33.3 °F 22.1 °F 32.0 °F 95% 29.93 in 3.0 mi North 18.4 mph - 0.20 in Thunderstorm Thunderstorm
8:15 PM 32.9 °F 24.1 °F 32.0 °F 96% 30.00 in 1.0 mi West 11.5 mph 38.0 mph 0.12 in Snow , Thunderstorm Thunderstorms and Snow
8:35 PM 32.9 °F 20.4 °F 32.0 °F 96% 29.93 in 2.0 mi North 23.0 mph 28.8 mph 0.17 in Snow , Thunderstorm Light Thunderstorms and Snow
8:55 PM 32.9 °F 23.2 °F 32.0 °F 96% 29.99 in 2.0 mi North 13.8 mph 18.4 mph 0.24 in Snow , Thunderstorm Light Thunderstorms and Snow
9:15 PM 32.9 °F 22.8 °F 32.0 °F 96% 30.01 in 4.0 mi North 15.0 mph 18.4 mph 0.01 in Snow , Thunderstorm Light Thunderstorms and Snow
9:55 PM 32.4 °F 21.3 °F 31.8 °F 98% 29.95 in 3.0 mi NNE 17.3 mph 20.7 mph 0.05 in Snow , Thunderstorm Light Thunderstorms and Snow
10:15 PM 32.7 °F 23.9 °F 32.0 °F 97% 30.00 in 3.0 mi NNE 11.5 mph - 0.01 in Snow , Thunderstorm Light Thunderstorms and Snow
10:35 PM 32.9 °F 23.7 °F 32.0 °F 96% 29.99 in 3.0 mi NNE 12.7 mph - 0.03 in Snow Light Snow
10:55 PM 32.9 °F 23.7 °F 32.0 °F 96% 29.97 in 4.0 mi NE 12.7 mph 21.9 mph 0.05 in Rain , Thunderstorm Rain
11:15 PM 33.3 °F 22.8 °F 32.2 °F 96% 29.89 in 7.0 mi NE 16.1 mph 31.1 mph 0.01 in Rain , Thunderstorm Light Thunderstorms and Rain
11:35 PM 33.8 °F 23.2 °F 32.4 °F 94% 29.89 in 10.0 mi NNE 17.3 mph 26.5 mph 0.01 in Thunderstorm Unknown
11:55 PM 34.3 °F 24.6 °F 32.9 °F 94% 29.95 in 10.0 mi NNE 15.0 mph 21.9 mph 0.01 in Thunderstorm Overcast